Project,Study,Ord_Occ,Event_Num,Cast_ID,Date_Time_UTC,Date_Time_PST,Lat_Dec,Lon_Dec,Sta_ID,Line,Sta,Depth,Pressure,PrQ,Temp1,Temp1Q,Temp2,Temp2Q,TempAve,Salt1,Salt1Q,Salt1_Corr,Salt2,Salt2Q,Salt2_Corr,SaltAve_Corr,Ox1,Ox1Q,Ox1_CruiseCorr,Ox1_StaCorr,Ox2,Ox2Q,Ox2_CruiseCorr,Ox2_StaCorr,OxAve_StaCorr,Ox1uM,Ox1uM_CruiseCorr,Ox1uM_StaCorr,Ox2uM,Ox2uM_CruiseCorr,Ox2uM_StaCorr,OxAveuM_StaCorr,FluorV,FluorQ,EstChl_CruiseCorr,EstChl_StaCorr,ISUSV,ISUSQ,EstNO3_CruiseCorr,EstNO3_StaCorr,SigThetaTS1,SigThetaTS1Q,SigThetaTS2,SigThetaTS2Q,BAT,XMiss,TransQ,pH,pHQ,SPAR,SPARQ,PAR,PARQ,PoT1,PoT2,DynHt,SVA,OxSat1,OxSat2,BTL_Depth,BTL_Temp,SaltB,OxB,OxBuM,Chl-a,Phaeo,NO3,NO2,NH4,PO4,SIL
CalCOFI,2101RL,070,,2101_070d,02-Feb-2021 08:31:58,02-Feb-2021 00:31:58,34.72269,-121.54657,076.7 060.0,076.7,060.0,3.000,3.022,,13.2001,,13.1996,,13.1999,33.4890,,33.4948,33.4874,,33.4894,33.4921,5.5904,,5.8508,5.8371,5.4618,,5.7990,5.8002,5.8187,243.533,255.1905,211.4961,237.933,271.2649,209.8329,210.6645,0.1268,,0.7908,, ,, , ,25.1827,,25.1815,,0.8341,81.1782,,,,3.6579E+00,,1.0000E-12,,13.1997,13.1992,0.0011,277.466,93.815,91.656,2,,33.4802,5.858,255.57,,,,,,,
CalCOFI,2101RL,070,,2101_070d,02-Feb-2021 08:32:05,02-Feb-2021 00:32:05,34.72268,-121.54655,076.7 060.0,076.7,060.0,4.000,4.029,,13.1968,,13.1942,,13.1955,33.4893,,33.4951,33.4870,,33.4890,33.4921,5.5690,,5.8284,5.8148,5.4876,,5.8264,5.8276,5.8212,242.602,254.2160,210.7525,239.055,270.2296,210.7441,210.7483,0.1308,,0.8236,, ,, , ,25.1836,,25.1823,,0.8365,81.1302,,,,3.6951E+00,,1.0000E-12,,13.1963,13.1937,0.0048,277.409,93.450,92.078,,,,,,,,,,,,
CalCOFI,2101RL,070,,2101_070d,02-Feb-2021 08:32:07,02-Feb-2021 00:32:07,34.72268,-121.54656,076.7 060.0,076.7,060.0,5.000,5.036,,13.1983,,13.2017,,13.2000,33.4889,,33.4947,33.4876,,33.4896,33.4922,5.5639,,5.8231,5.8095,5.4901,,5.8290,5.8302,5.8199,242.381,253.9846,210.5760,239.166,269.9839,210.8342,210.7051,0.1370,,0.8744,, ,, , ,25.1830,,25.1813,,0.8364,81.1307,,,,3.6947E+00,,1.0000E-12,,13.1977,13.2011,0.0076,277.491,93.368,92.135,,,,,,,,,,,,
CalCOFI,2101RL,070,,2101_070d,02-Feb-2021 08:32:09,02-Feb-2021 00:32:09,34.72268,-121.54656,076.7 060.0,076.7,060.0,6.000,6.044,,13.1551,,13.1520,,13.1536,33.4854,,33.4912,33.4842,,33.4862,33.4887,5.5643,,5.8235,5.8099,5.5007,,5.8403,5.8415,5.8257,242.397,254.0014,210.5888,239.625,270.0017,211.2070,210.8979,0.1303,,0.8195,, ,, , ,25.1890,,25.1887,,0.8426,81.0052,,,,3.6947E+00,,1.0000E-12,,13.1543,13.1512,0.0103,276.950,93.290,92.216,,,,,,,,,,,,
CalCOFI,2101RL,070,,2101_070d,02-Feb-2021 08:32:10,02-Feb-2021 00:32:10,34.72268,-121.54656,076.7 060.0,076.7,060.0,7.000,7.051,,13.1389,,13.1392,,13.1391,33.4851,,33.4909,33.4836,,33.4856,33.4883,5.5688,,5.8282,5.8146,5.4912,,5.8302,5.8314,5.8230,242.593,254.2066,210.7453,239.213,270.2196,210.8724,210.8089,0.1356,,0.8629,, ,, , ,25.1920,,25.1908,,0.8479,80.8990,,,,3.6947E+00,,1.0000E-12,,13.1379,13.1382,0.0131,276.694,93.334,92.033,,,,,,,,,,,,
CalCOFI,2101RL,070,,2101_070d,02-Feb-2021 08:32:11,02-Feb-2021 00:32:11,34.72268,-121.54656,076.7 060.0,076.7,060.0,8.000,8.058,,13.1376,,13.1379,,13.1378,33.4857,,33.4915,33.4840,,33.4860,33.4888,5.5740,,5.8336,5.8200,5.4889,,5.8278,5.8289,5.8245,242.817,254.4410,210.9242,239.113,270.4687,210.7912,210.8577,0.1380,,0.8826,, ,, , ,25.1927,,25.1914,,0.8479,80.8975,,,,3.6947E+00,,1.0000E-12,,13.1365,13.1368,0.0159,276.651,93.418,91.992,,,,,,,,,,,,
CalCOFI,2101RL,070,,2101_070d,02-Feb-2021 08:32:12,02-Feb-2021 00:32:12,34.72268,-121.54654,076.7 060.0,076.7,060.0,9.000,9.065,,13.1315,,13.1318,,13.1317,33.4861,,33.4919,33.4845,,33.4865,33.4892,5.5668,,5.8261,5.8125,5.4933,,5.8324,5.8336,5.8231,242.503,254.1123,210.6734,239.301,270.1195,210.9438,210.8086,0.1416,,0.9121,, ,, , ,25.1943,,25.1930,,0.8489,80.8779,,,,3.6947E+00,,1.0000E-12,,13.1303,13.1305,0.0187,276.526,93.286,92.053,,,,,,,,,,,,
CalCOFI,2101RL,070,,2101_070d,02-Feb-2021 08:32:14,02-Feb-2021 00:32:14,34.72268,-121.54654,076.7 060.0,076.7,060.0,10.000,10.073,,13.1252,,13.1255,,13.1254,33.4859,,33.4917,33.4843,,33.4863,33.4890,5.5550,,5.8138,5.8003,5.4890,,5.8279,5.8291,5.8147,241.987,253.5722,210.2613,239.116,269.5457,210.7936,210.5275,0.1426,,0.9203,, ,, , ,25.1954,,25.1942,,0.8488,80.8799,,,,3.6947E+00,,1.0000E-12,,13.1239,13.1241,0.0215,276.446,93.075,91.970,10,,33.4751,5.807,253.37,,,,,,,
CalCOFI,2101RL,070,,2101_070d,02-Feb-2021 08:32:16,02-Feb-2021 00:32:16,34.72266,-121.54652,076.7 060.0,076.7,060.0,11.000,11.080,,13.1217,,13.1213,,13.1215,33.4860,,33.4918,33.4846,,33.4866,33.4892,5.5508,,5.8094,5.7959,5.4799,,5.8182,5.8194,5.8077,241.807,253.3838,210.1175,238.717,269.3456,210.4696,210.2936,0.1405,,0.9031,, ,, , ,25.1962,,25.1952,,0.8493,80.8699,,,,3.6947E+00,,1.0000E-12,,13.1202,13.1198,0.0243,276.396,92.999,91.809,,,,,,,,,,,,
CalCOFI,2101RL,070,,2101_070d,02-Feb-2021 08:32:17,02-Feb-2021 00:32:17,34.72266,-121.54652,076.7 060.0,076.7,060.0,12.000,12.087,,13.1176,,13.1176,,13.1176,33.4860,,33.4918,33.4845,,33.4865,33.4892,5.5474,,5.8058,5.7924,5.4552,,5.7920,5.7932,5.7928,241.656,253.2257,209.9969,237.644,269.1777,209.5982,209.7976,0.1399,,0.8982,, ,, , ,25.1971,,25.1959,,0.8472,80.9126,,,,3.6947E+00,,1.0000E-12,,13.1159,13.1159,0.0271,276.343,92.934,91.390,,,,,,,,,,,,
CalCOFI,2101RL,070,,2101_070d,02-Feb-2021 08:32:19,02-Feb-2021 00:32:19,34.72268,-121.54652,076.7 060.0,076.7,060.0,13.000,13.095,,13.1100,,13.1095,,13.1098,33.4864,,33.4922,33.4849,,33.4869,33.4896,5.5338,,5.7916,5.7782,5.4480,,5.7843,5.7855,5.7819,241.067,252.6091,209.5264,237.326,268.5227,209.3400,209.4332,0.1391,,0.8916,, ,, , ,25.1989,,25.1979,,0.8505,80.8458,,,,3.6947E+00,,1.0000E-12,,13.1082,13.1077,0.0298,276.197,92.693,91.253,,,,,,,,,,,,
CalCOFI,2101RL,070,,2101_070d,02-Feb-2021 08:32:22,02-Feb-2021 00:32:22,34.72269,-121.54652,076.7 060.0,076.7,060.0,14.000,14.102,,13.0827,,13.0824,,13.0826,33.4890,,33.4948,33.4876,,33.4896,33.4922,5.5196,,5.7767,5.7635,5.4438,,5.7799,5.7811,5.7723,240.445,251.9580,209.0296,237.142,267.8310,209.1906,209.1101,0.1382,,0.8842,, ,, , ,25.2064,,25.2054,,0.8449,80.9593,,,,3.6947E+00,,1.0000E-12,,13.0808,13.0805,0.0326,275.514,92.404,91.133,,,,,,,,,,,,
CalCOFI,2101RL,070,,2101_070d,02-Feb-2021 08:32:30,02-Feb-2021 00:32:30,34.72273,-121.54650,076.7 060.0,076.7,060.0,15.000,15.109,,13.0462,,13.0465,,13.0464,33.4887,,33.4945,33.4872,,33.4892,33.4919,5.4791,,5.7343,5.7214,5.4154,,5.7497,5.7509,5.7362,238.681,250.1115,207.6206,235.904,265.8694,208.1852,207.9029,0.1390,,0.8908,, ,, , ,25.2135,,25.2122,,0.8288,81.2853,,,,3.6947E+00,,1.0000E-12,,13.0442,13.0444,0.0354,274.865,91.658,90.591,15,,33.4784,, ,,,,,,,
CalCOFI,2101RL,070,,2101_070d,02-Feb-2021 08:32:36,02-Feb-2021 00:32:36,34.72275,-121.54650,076.7 060.0,076.7,060.0,16.000,16.117,,13.0227,,13.0236,,13.0232,33.4880,,33.4938,33.4868,,33.4888,33.4913,5.4367,,5.6900,5.6773,5.3736,,5.7053,5.7065,5.6919,236.831,248.1749,206.1430,234.084,263.8122,206.7072,206.4251,0.1249,,0.7752,, ,, , ,25.2176,,25.2165,,0.8185,81.4944,,,,3.6947E+00,,1.0000E-12,,13.0206,13.0214,0.0382,274.500,90.903,89.849,,,,,,,,,,,,
CalCOFI,2101RL,070,,2101_070d,02-Feb-2021 08:32:38,02-Feb-2021 00:32:38,34.72276,-121.54649,076.7 060.0,076.7,060.0,17.000,17.124,,12.9965,,12.9984,,12.9975,33.4893,,33.4951,33.4878,,33.4898,33.4925,5.4359,,5.6891,5.6764,5.3602,,5.6911,5.6923,5.6844,236.795,248.1372,206.1142,233.497,263.7722,206.2305,206.1724,0.1169,,0.7097,, ,, , ,25.2238,,25.2223,,0.8110,81.6487,,,,3.6947E+00,,1.0000E-12,,12.9942,12.9961,0.0410,273.937,90.842,89.579,,,,,,,,,,,,
CalCOFI,2101RL,070,,2101_070d,02-Feb-2021 08:32:42,02-Feb-2021 00:32:42,34.72276,-121.54648,076.7 060.0,076.7,060.0,18.000,18.131,,12.9813,,12.9814,,12.9814,33.4894,,33.4952,33.4879,,33.4899,33.4926,5.4132,,5.6654,5.6528,5.3431,,5.6729,5.6741,5.6635,235.805,247.1009,205.3234,232.750,262.6713,205.6239,205.4737,0.1097,,0.6507,, ,, , ,25.2270,,25.2258,,0.8043,81.7848,,,,3.6947E+00,,1.0000E-12,,12.9789,12.9789,0.0437,273.662,90.434,89.261,,,,,,,,,,,,
CalCOFI,2101RL,070,,2101_070d,02-Feb-2021 08:32:44,02-Feb-2021 00:32:44,34.72276,-121.54648,076.7 060.0,076.7,060.0,19.000,19.139,,12.9744,,12.9737,,12.9741,33.4896,,33.4954,33.4881,,33.4901,33.4928,5.4017,,5.6533,5.6409,5.3341,,5.6633,5.6646,5.6528,235.302,246.5743,204.9217,232.358,262.1119,205.3056,205.1137,0.1089,,0.6441,, ,, , ,25.2285,,25.2275,,0.8018,81.8369,,,,3.6947E+00,,1.0000E-12,,12.9718,12.9712,0.0465,273.545,90.228,89.097,,,,,,,,,,,,
CalCOFI,2101RL,070,,2101_070d,02-Feb-2021 08:32:46,02-Feb-2021 00:32:46,34.72276,-121.54648,076.7 060.0,076.7,060.0,20.000,20.146,,12.9707,,12.9707,,12.9707,33.4895,,33.4953,33.4882,,33.4902,33.4928,5.4074,,5.6593,5.6468,5.3234,,5.6520,5.6532,5.6500,235.552,246.8360,205.1214,231.892,262.3899,204.9271,205.0243,0.1073,,0.6310,, ,, , ,25.2292,,25.2281,,0.8000,81.8738,,,,3.6947E+00,,1.0000E-12,,12.9680,12.9680,0.0493,273.504,90.317,88.913,20,,33.4794,5.686,248.09,,,,,,,
CalCOFI,2101RL,070,,2101_070d,02-Feb-2021 08:32:48,02-Feb-2021 00:32:48,34.72277,-121.54647,076.7 060.0,076.7,060.0,21.000,21.153,,12.9654,,12.9657,,12.9656,33.4894,,33.4952,33.4880,,33.4900,33.4926,5.4085,,5.6604,5.6480,5.3153,,5.6434,5.6446,5.6463,235.600,246.8863,205.1597,231.542,262.4433,204.6429,204.9013,0.1038,,0.6023,, ,, , ,25.2302,,25.2290,,0.7987,81.9008,,,,3.6947E+00,,1.0000E-12,,12.9625,12.9628,0.0520,273.437,90.326,88.769,,,,,,,,,,,,
CalCOFI,2101RL,070,,2101_070d,02-Feb-2021 08:32:50,02-Feb-2021 00:32:50,34.72278,-121.54646,076.7 060.0,076.7,060.0,22.000,22.161,,12.9596,,12.9592,,12.9594,33.4894,,33.4952,33.4878,,33.4898,33.4925,5.4009,,5.6525,5.6401,5.3320,,5.6611,5.6623,5.6512,235.267,246.5377,204.8937,232.267,262.0730,205.2316,205.0627,0.1017,,0.5851,, ,, , ,25.2313,,25.2302,,0.8024,81.8251,,,,3.6947E+00,,1.0000E-12,,12.9566,12.9563,0.0548,273.355,90.187,89.036,,,,,,,,,,,,
CalCOFI,2101RL,070,,2101_070d,02-Feb-2021 08:32:53,02-Feb-2021 00:32:53,34.72278,-121.54646,076.7 060.0,076.7,060.0,23.000,23.168,,12.9574,,12.9548,,12.9561,33.4895,,33.4953,33.4878,,33.4898,33.4926,5.3933,,5.6445,5.6321,5.3190,,5.6473,5.6485,5.6403,234.938,246.1933,204.6309,231.699,261.7071,204.7704,204.7007,0.1009,,0.5786,, ,, , ,25.2318,,25.2311,,0.7960,81.9556,,,,3.6947E+00,,1.0000E-12,,12.9543,12.9517,0.0575,273.331,90.057,88.810,,,,,,,,,,,,
CalCOFI,2101RL,070,,2101_070d,02-Feb-2021 08:32:55,02-Feb-2021 00:32:55,34.72278,-121.54646,076.7 060.0,076.7,060.0,24.000,24.175,,12.9544,,12.9543,,12.9544,33.4896,,33.4954,33.4879,,33.4899,33.4927,5.3899,,5.6410,5.6286,5.3175,,5.6457,5.6469,5.6378,234.787,246.0352,204.5103,231.633,261.5392,204.7168,204.6136,0.0986,,0.5597,, ,, , ,25.2326,,25.2313,,0.7967,81.9423,,,,3.6947E+00,,1.0000E-12,,12.9512,12.9511,0.0603,273.289,89.994,88.784,,,,,,,,,,,,
CalCOFI,2101RL,070,,2101_070d,02-Feb-2021 08:32:57,02-Feb-2021 00:32:57,34.72278,-121.54646,076.7 060.0,076.7,060.0,25.000,25.183,,12.9486,,12.9488,,12.9487,33.4895,,33.4953,33.4882,,33.4902,33.4928,5.3964,,5.6478,5.6354,5.3151,,5.6432,5.6444,5.6399,235.070,246.3315,204.7364,231.529,261.8539,204.6323,204.6844,0.1024,,0.5909,, ,, , ,25.2336,,25.2326,,0.7955,81.9655,,,,3.6947E+00,,1.0000E-12,,12.9452,12.9454,0.0630,273.214,90.091,88.734,,,,,,,,,,,,
CalCOFI,2101RL,070,,2101_070d,02-Feb-2021 08:32:58,02-Feb-2021 00:32:58,34.72279,-121.54646,076.7 060.0,076.7,060.0,26.000,26.190,,12.9463,,12.9465,,12.9464,33.4899,,33.4957,33.4882,,33.4902,33.4930,5.3971,,5.6485,5.6361,5.3140,,5.6420,5.6432,5.6397,235.100,246.3629,204.7603,231.482,261.8873,204.5942,204.6773,0.0965,,0.5425,, ,, , ,25.2344,,25.2331,,0.7946,81.9841,,,,3.6947E+00,,1.0000E-12,,12.9428,12.9429,0.0658,273.169,90.099,88.712,,,,,,,,,,,,
CalCOFI,2101RL,070,,2101_070d,02-Feb-2021 08:32:59,02-Feb-2021 00:32:59,34.72280,-121.54646,076.7 060.0,076.7,060.0,27.000,27.198,,12.9383,,12.9389,,12.9386,33.4902,,33.4960,33.4887,,33.4907,33.4934,5.3943,,5.6456,5.6332,5.3131,,5.6410,5.6423,5.6378,234.979,246.2362,204.6637,231.442,261.7527,204.5617,204.6127,0.0969,,0.5458,, ,, , ,25.2363,,25.2350,,0.7943,81.9910,,,,3.6947E+00,,1.0000E-12,,12.9347,12.9352,0.0685,273.017,90.038,88.683,,,,,,,,,,,,
CalCOFI,2101RL,070,,2101_070d,02-Feb-2021 08:33:01,02-Feb-2021 00:33:01,34.72280,-121.54646,076.7 060.0,076.7,060.0,28.000,28.205,,12.9372,,12.9376,,12.9374,33.4903,,33.4961,33.4888,,33.4908,33.4935,5.3848,,5.6356,5.6233,5.3156,,5.6437,5.6449,5.6341,234.566,245.8039,204.3338,231.549,261.2935,204.6486,204.4912,0.0947,,0.5278,, ,, , ,25.2366,,25.2354,,0.7946,81.9844,,,,3.6947E+00,,1.0000E-12,,12.9334,12.9338,0.0713,273.010,89.878,88.722,,,,,,,,,,,,
CalCOFI,2101RL,070,,2101_070d,02-Feb-2021 08:33:03,02-Feb-2021 00:33:03,34.72282,-121.54644,076.7 060.0,076.7,060.0,29.000,29.212,,12.9333,,12.9339,,12.9336,33.4908,,33.4966,33.4893,,33.4913,33.4940,5.3880,,5.6390,5.6266,5.2992,,5.6263,5.6275,5.6271,234.704,245.9483,204.4440,230.836,261.4469,204.0696,204.2568,0.0957,,0.5360,, ,, , ,25.2378,,25.2365,,0.7948,81.9799,,,,3.6947E+00,,1.0000E-12,,12.9294,12.9300,0.0740,272.930,89.924,88.442,,,,,,,,,,,,
CalCOFI,2101RL,070,,2101_070d,02-Feb-2021 08:33:07,02-Feb-2021 00:33:07,34.72285,-121.54642,076.7 060.0,076.7,060.0,30.000,30.220,,12.9311,,12.9318,,12.9315,33.4908,,33.4966,33.4894,,33.4914,33.4940,5.3842,,5.6350,5.6227,5.3046,,5.6320,5.6332,5.6280,234.540,245.7767,204.3130,231.071,261.2646,204.2604,204.2867,0.0949,,0.5294,, ,, , ,25.2382,,25.2370,,0.7919,82.0389,,,,3.6947E+00,,1.0000E-12,,12.9270,12.9278,0.0768,272.910,89.857,88.528,,,,,,,,,,,,
CalCOFI,2101RL,070,,2101_070d,02-Feb-2021 08:33:09,02-Feb-2021 00:33:09,34.72286,-121.54642,076.7 060.0,076.7,060.0,31.000,31.227,,12.9293,,12.9293,,12.9293,33.4911,,33.4969,33.4897,,33.4917,33.4943,5.4004,,5.6520,5.6395,5.3168,,5.6450,5.6462,5.6429,235.245,246.5147,204.8762,231.604,262.0485,204.6932,204.7847,0.0972,,0.5483,, ,, , ,25.2389,,25.2378,,0.7928,82.0204,,,,3.6947E+00,,1.0000E-12,,12.9251,12.9251,0.0795,272.877,90.124,88.728,,,,,,,,,,,,
CalCOFI,2101RL,070,,2101_070d,02-Feb-2021 08:33:10,02-Feb-2021 00:33:10,34.72286,-121.54642,076.7 060.0,076.7,060.0,32.000,32.234,,12.9278,,12.9290,,12.9284,33.4915,,33.4973,33.4900,,33.4920,33.4947,5.4178,,5.6702,5.6576,5.3155,,5.6436,5.6448,5.6512,236.002,247.3071,205.4808,231.544,262.8903,204.6445,205.0627,0.0982,,0.5565,, ,, , ,25.2395,,25.2381,,0.7942,81.9919,,,,3.6947E+00,,1.0000E-12,,12.9235,12.9247,0.0823,272.845,90.412,88.705,,,,,,,,,,,,
CalCOFI,2101RL,070,,2101_070d,02-Feb-2021 08:33:11,02-Feb-2021 00:33:11,34.72286,-121.54642,076.7 060.0,076.7,060.0,33.000,33.242,,12.9258,,12.9271,,12.9265,33.4934,,33.4992,33.4915,,33.4935,33.4964,5.4203,,5.6728,5.6602,5.3061,,5.6336,5.6348,5.6475,236.112,247.4222,205.5687,231.137,263.0126,204.3140,204.9414,0.0987,,0.5606,, ,, , ,25.2414,,25.2397,,0.7939,81.9974,,,,3.6947E+00,,1.0000E-12,,12.9213,12.9226,0.0850,272.692,90.451,88.546,,,,,,,,,,,,
CalCOFI,2101RL,070,,2101_070d,02-Feb-2021 08:33:12,02-Feb-2021 00:33:12,34.72288,-121.54640,076.7 060.0,076.7,060.0,34.000,34.249,,12.9275,,12.9280,,12.9278,33.4938,,33.4996,33.4924,,33.4944,33.4970,5.4097,,5.6617,5.6492,5.3097,,5.6374,5.6386,5.6439,235.651,246.9397,205.2004,231.292,262.5000,204.4399,204.8202,0.1000,,0.5712,, ,, , ,25.2414,,25.2402,,0.7951,81.9734,,,,3.6947E+00,,1.0000E-12,,12.9229,12.9234,0.0878,272.716,90.278,88.608,,,,,,,,,,,,
CalCOFI,2101RL,070,,2101_070d,02-Feb-2021 08:33:14,02-Feb-2021 00:33:14,34.72289,-121.54639,076.7 060.0,076.7,060.0,35.000,35.257,,12.9273,,12.9273,,12.9273,33.4944,,33.5002,33.4930,,33.4950,33.4976,5.4186,,5.6710,5.6585,5.3140,,5.6420,5.6432,5.6509,236.038,247.3448,205.5096,231.480,262.9304,204.5925,205.0511,0.0984,,0.5581,, ,, , ,25.2419,,25.2408,,0.7944,81.9886,,,,3.6947E+00,,1.0000E-12,,12.9225,12.9226,0.0905,272.697,90.426,88.679,,,,,,,,,,,,
CalCOFI,2101RL,070,,2101_070d,02-Feb-2021 08:33:17,02-Feb-2021 00:33:17,34.72290,-121.54637,076.7 060.0,076.7,060.0,36.000,36.264,,12.9221,,12.9228,,12.9225,33.4972,,33.5030,33.4957,,33.4977,33.5004,5.4241,,5.6768,5.6642,5.3225,,5.6510,5.6522,5.6582,236.277,247.5950,205.7005,231.848,263.1961,204.8914,205.2960,0.1028,,0.5942,, ,, , ,25.2451,,25.2439,,0.7964,81.9471,,,,3.6947E+00,,1.0000E-12,,12.9173,12.9179,0.0933,272.418,90.510,88.814,,,,,,,,,,,,
CalCOFI,2101RL,070,,2101_070d,02-Feb-2021 08:33:20,02-Feb-2021 00:33:20,34.72290,-121.54636,076.7 060.0,076.7,060.0,37.000,37.272,,12.9195,,12.9196,,12.9196,33.4991,,33.5049,33.4977,,33.4997,33.5023,5.4224,,5.6750,5.6624,5.3208,,5.6492,5.6504,5.6564,236.203,247.5175,205.6413,231.776,263.1138,204.8329,205.2371,0.1048,,0.6105,, ,, , ,25.2472,,25.2461,,0.7961,81.9543,,,,3.6947E+00,,1.0000E-12,,12.9145,12.9146,0.0960,272.251,90.478,88.781,,,,,,,,,,,,
CalCOFI,2101RL,070,,2101_070d,02-Feb-2021 08:33:21,02-Feb-2021 00:33:21,34.72290,-121.54636,076.7 060.0,076.7,060.0,38.000,38.279,,12.9193,,12.9195,,12.9194,33.5001,,33.5059,33.4987,,33.5007,33.5033,5.4216,,5.6741,5.6616,5.3289,,5.6578,5.6590,5.6603,236.166,247.4788,205.6118,232.129,263.0727,205.1196,205.3657,0.1090,,0.6450,, ,, , ,25.2480,,25.2469,,0.7959,81.9571,,,,3.6947E+00,,1.0000E-12,,12.9142,12.9144,0.0988,272.199,90.464,88.917,,,,,,,,,,,,
CalCOFI,2101RL,070,,2101_070d,02-Feb-2021 08:33:23,02-Feb-2021 00:33:23,34.72290,-121.54636,076.7 060.0,076.7,060.0,39.000,39.286,,12.9178,,12.9179,,12.9179,33.5015,,33.5073,33.5001,,33.5021,33.5047,5.4313,,5.6843,5.6717,5.3263,,5.6551,5.6563,5.6640,236.589,247.9216,205.9497,232.015,263.5431,205.0270,205.4884,0.1115,,0.6654,, ,, , ,25.2494,,25.2483,,0.7965,81.9441,,,,3.6947E+00,,1.0000E-12,,12.9125,12.9127,0.1015,272.090,90.624,88.871,,,,,,,,,,,,
CalCOFI,2101RL,070,,2101_070d,02-Feb-2021 08:33:25,02-Feb-2021 00:33:25,34.72291,-121.54637,076.7 060.0,076.7,060.0,40.000,40.294,,12.9169,,12.9169,,12.9169,33.5017,,33.5075,33.5003,,33.5023,33.5049,5.4290,,5.6819,5.6693,5.3309,,5.6599,5.6612,5.6653,236.486,247.8137,205.8674,232.213,263.4285,205.1878,205.5276,0.1100,,0.6532,, ,, , ,25.2498,,25.2487,,0.7958,81.9587,,,,3.6947E+00,,1.0000E-12,,12.9115,12.9115,0.1042,272.085,90.583,88.946,,,,,,,,,,,,
CalCOFI,2101RL,070,,2101_070d,02-Feb-2021 08:33:26,02-Feb-2021 00:33:26,34.72292,-121.54638,076.7 060.0,076.7,060.0,41.000,41.301,,12.9157,,12.9155,,12.9156,33.5019,,33.5077,33.5006,,33.5026,33.5052,5.4193,,5.6717,5.6592,5.3334,,5.6626,5.6638,5.6615,236.066,247.3741,205.5319,232.323,262.9615,205.2771,205.4045,0.1072,,0.6302,, ,, , ,25.2502,,25.2492,,0.7948,81.9808,,,,3.6947E+00,,1.0000E-12,,12.9101,12.9099,0.1070,272.072,90.420,88.985,,,,,,,,,,,,
CalCOFI,2101RL,070,,2101_070d,02-Feb-2021 08:33:28,02-Feb-2021 00:33:28,34.72293,-121.54638,076.7 060.0,076.7,060.0,42.000,42.309,,12.9081,,12.9080,,12.9081,33.5028,,33.5086,33.5015,,33.5035,33.5061,5.4393,,5.6927,5.6800,5.3275,,5.6563,5.6576,5.6688,236.937,248.2859,206.2276,232.065,263.9301,205.0676,205.6476,0.1054,,0.6155,, ,, , ,25.2524,,25.2514,,0.7909,82.0599,,,,3.6947E+00,,1.0000E-12,,12.9024,12.9023,0.1097,271.891,90.740,88.873,,,,,,,,,,,,
CalCOFI,2101RL,070,,2101_070d,02-Feb-2021 08:33:29,02-Feb-2021 00:33:29,34.72294,-121.54638,076.7 060.0,076.7,060.0,43.000,43.316,,12.9031,,12.9030,,12.9031,33.5038,,33.5096,33.5025,,33.5045,33.5071,5.4356,,5.6888,5.6761,5.3205,,5.6489,5.6501,5.6631,236.773,248.1142,206.0966,231.762,263.7477,204.8215,205.4591,0.1036,,0.6007,, ,, , ,25.2542,,25.2532,,0.7890,82.0993,,,,3.6947E+00,,1.0000E-12,,12.8973,12.8972,0.1125,271.743,90.669,88.749,,,,,,,,,,,,
CalCOFI,2101RL,070,,2101_070d,02-Feb-2021 08:33:32,02-Feb-2021 00:33:32,34.72294,-121.54635,076.7 060.0,076.7,060.0,44.000,44.324,,12.8978,,12.8981,,12.8980,33.5048,,33.5106,33.5033,,33.5053,33.5080,5.4266,,5.6794,5.6668,5.3203,,5.6487,5.6499,5.6584,236.380,247.7028,205.7827,231.752,263.3107,204.8134,205.2981,0.0957,,0.5360,, ,, , ,25.2560,,25.2548,,0.7880,82.1189,,,,3.6947E+00,,1.0000E-12,,12.8919,12.8922,0.1152,271.593,90.509,88.737,,,,,,,,,,,,
CalCOFI,2101RL,070,,2101_070d,02-Feb-2021 08:33:35,02-Feb-2021 00:33:35,34.72295,-121.54633,076.7 060.0,076.7,060.0,45.000,45.331,,12.8913,,12.8905,,12.8909,33.5050,,33.5108,33.5036,,33.5056,33.5082,5.4068,,5.6587,5.6462,5.3060,,5.6335,5.6347,5.6405,235.521,246.8036,205.0966,231.130,262.3554,204.3083,204.7025,0.0963,,0.5409,, ,, , ,25.2575,,25.2566,,0.7852,82.1765,,,,3.6947E+00,,1.0000E-12,,12.8852,12.8844,0.1179,271.481,90.168,88.485,,,,,,,,,,,,
CalCOFI,2101RL,070,,2101_070d,02-Feb-2021 08:33:37,02-Feb-2021 00:33:37,34.72295,-121.54633,076.7 060.0,076.7,060.0,46.000,46.339,,12.8732,,12.8730,,12.8731,33.5059,,33.5117,33.5047,,33.5067,33.5092,5.3532,,5.6026,5.5905,5.2679,,5.5930,5.5943,5.5924,233.183,244.3562,203.2291,229.468,259.7556,202.9586,203.0939,0.0900,,0.4893,, ,, , ,25.2618,,25.2609,,0.7814,82.2542,,,,3.6947E+00,,1.0000E-12,,12.8670,12.8668,0.1207,271.100,89.241,87.818,,,,,,,,,,,,
CalCOFI,2101RL,070,,2101_070d,02-Feb-2021 08:33:39,02-Feb-2021 00:33:39,34.72294,-121.54634,076.7 060.0,076.7,060.0,47.000,47.346,,12.8332,,12.8311,,12.8322,33.5103,,33.5161,33.5091,,33.5111,33.5136,5.3440,,5.5929,5.5809,5.2559,,5.5803,5.5815,5.5812,232.781,243.9354,202.9081,228.944,259.3085,202.5331,202.7206,0.0950,,0.5302,, ,, , ,25.2730,,25.2726,,0.7785,82.3132,,,,3.6947E+00,,1.0000E-12,,12.8268,12.8248,0.1234,270.051,89.017,87.545,,,,,,,,,,,,
CalCOFI,2101RL,070,,2101_070d,02-Feb-2021 08:33:40,02-Feb-2021 00:33:40,34.72294,-121.54634,076.7 060.0,076.7,060.0,48.000,48.354,,12.8085,,12.8085,,12.8085,33.5140,,33.5198,33.5125,,33.5145,33.5172,5.3253,,5.5734,5.5614,5.2380,,5.5613,5.5625,5.5620,231.965,243.0812,202.2563,228.163,258.4011,201.8988,202.0776,0.0937,,0.5196,, ,, , ,25.2808,,25.2797,,0.7769,82.3476,,,,3.6947E+00,,1.0000E-12,,12.8021,12.8021,0.1261,269.335,88.662,87.208,,,,,,,,,,,,
CalCOFI,2101RL,070,,2101_070d,02-Feb-2021 08:33:41,02-Feb-2021 00:33:41,34.72296,-121.54636,076.7 060.0,076.7,060.0,49.000,49.361,,12.8014,,12.8010,,12.8012,33.5146,,33.5204,33.5132,,33.5152,33.5178,5.3268,,5.5749,5.5630,5.2316,,5.5545,5.5557,5.5594,232.027,243.1461,202.3058,227.882,258.4701,201.6707,201.9883,0.0929,,0.5130,, ,, , ,25.2827,,25.2817,,0.7760,82.3645,,,,3.6947E+00,,1.0000E-12,,12.7948,12.7944,0.1288,269.182,88.673,87.087,,,,,,,,,,,,
CalCOFI,2101RL,070,,2101_070d,02-Feb-2021 08:33:42,02-Feb-2021 00:33:42,34.72296,-121.54636,076.7 060.0,076.7,060.0,50.000,50.369,,12.7920,,12.7916,,12.7918,33.5155,,33.5213,33.5140,,33.5160,33.5187,5.3234,,5.5714,5.5595,5.2255,,5.5480,5.5492,5.5544,231.878,242.9901,202.1868,227.617,258.3044,201.4555,201.8212,0.0947,,0.5278,, ,, , ,25.2853,,25.2842,,0.7749,82.3874,,,,3.6947E+00,,1.0000E-12,,12.7853,12.7849,0.1315,268.967,88.600,86.970,,,,,,,,,,,,
CalCOFI,2101RL,070,,2101_070d,02-Feb-2021 08:33:44,02-Feb-2021 00:33:44,34.72296,-121.54635,076.7 060.0,076.7,060.0,51.000,51.376,,12.7833,,12.7841,,12.7837,33.5161,,33.5219,33.5147,,33.5167,33.5193,5.3231,,5.5711,5.5592,5.2194,,5.5415,5.5428,5.5510,231.868,242.9796,202.1788,227.351,258.2933,201.2394,201.7091,0.0844,,0.4434,, ,, , ,25.2875,,25.2862,,0.7742,82.4037,,,,3.6947E+00,,1.0000E-12,,12.7764,12.7773,0.1342,268.780,88.581,86.855,51,,33.5126,5.509,240.33,,,,,,,
CalCOFI,2101RL,070,,2101_070d,02-Feb-2021 08:33:47,02-Feb-2021 00:33:47,34.72296,-121.54633,076.7 060.0,076.7,060.0,52.000,52.384,,12.7772,,12.7775,,12.7774,33.5171,,33.5229,33.5157,,33.5177,33.5203,5.3265,,5.5746,5.5627,5.2201,,5.5423,5.5435,5.5531,232.013,243.1314,202.2946,227.379,258.4545,201.2622,201.7784,0.0739,,0.3573,, ,, , ,25.2895,,25.2883,,0.7743,82.4015,,,,3.6947E+00,,1.0000E-12,,12.7702,12.7705,0.1369,268.616,88.625,86.855,,,,,,,,,,,,
CalCOFI,2101RL,070,,2101_070d,02-Feb-2021 08:33:50,02-Feb-2021 00:33:50,34.72295,-121.54632,076.7 060.0,076.7,060.0,53.000,53.391,,12.7757,,12.7760,,12.7759,33.5182,,33.5240,33.5167,,33.5187,33.5214,5.3192,,5.5670,5.5551,5.2173,,5.5393,5.5405,5.5478,231.698,242.8017,202.0430,227.259,258.1042,201.1647,201.6039,0.0763,,0.3770,, ,, , ,25.2907,,25.2895,,0.7737,82.4136,,,,3.6947E+00,,1.0000E-12,,12.7686,12.7689,0.1397,268.532,88.503,86.807,,,,,,,,,,,,